Overview Statistics Trail Chart Weather Telemetry Raw packets
 

This is the latest recevied weather packets stored in our database for station/object KB4MOX. If no packets are shown the sender has not sent any weather packets the latest 10 day(s).

<< 68 69 70 71 72 73 74 >>
Time Temp. Humidity Pressure Rain* Wind** Luminosity Snow
1788135942 27.78° C 71% 1019.4 hPa 0 mm - 0 W/m² -
1788135637 27.78° C 70% 1019.2 hPa 0 mm - 0 W/m² -
1788135333 28.33° C 69% 1019.2 hPa 0 mm - 0 W/m² -
1788135029 28.89° C 68% 1019.2 hPa 0 mm - 1 W/m² -
1788134725 28.89° C 68% 1019.3 hPa 0 mm - 1 W/m² -
1788134419 29.44° C 66% 1019.3 hPa 0 mm - 3 W/m² -
1788134118 29.44° C 65% 1019.2 hPa 0 mm - 5 W/m² -
1788133813 30° C 64% 1019.1 hPa 0 mm - 8 W/m² -
1788133508 30° C 63% 1019 hPa 0 mm - 10 W/m² -
1788133203 30° C 62% 1019.1 hPa 0 mm - 14 W/m² -
1788132898 30.56° C 62% 1019.1 hPa 0 mm - 17 W/m² -
1788132594 30.56° C 61% 1019 hPa 0 mm - 23 W/m² -
1788132290 31.11° C 60% 1018.9 hPa 0 mm - 23 W/m² -
1788131987 31.11° C 57% 1019 hPa 0 mm - 38 W/m² -
1788131682 31.67° C 56% 1018.8 hPa 0 mm - 47 W/m² -
1788131381 31.67° C 57% 1019 hPa 0 mm - 57 W/m² -
1788131077 31.67° C 56% 1019 hPa 0 mm - 64 W/m² -
1788130775 31.67° C 56% 1018.9 hPa 0 mm - 76 W/m² -
1788130472 31.67° C 56% 1018.8 hPa 0 mm - 86 W/m² -
1788130166 32.22° C 56% 1018.8 hPa 0 mm - 98 W/m² -
1788129864 32.22° C 56% 1018.9 hPa 0 mm - 109 W/m² -
1788129561 32.22° C 56% 1018.7 hPa 0 mm - 122 W/m² -
1788129258 32.22° C 55% 1018.7 hPa 0 mm - 138 W/m² -
1788128956 32.22° C 55% 1018.8 hPa 0 mm - 155 W/m² -
1788128652 31.67° C 55% 1018.7 hPa 0 mm - 172 W/m² -

* Rain latest hour (hover to see other rain measurements)
** Current wind speed in m/s (hover to see current wind gust speed)